Temperature
17 18 18 18 18 17 17 18 18 18 18 18 18 18 18 18 18 18 18 18 18 18 18 18 18 18 18 18 18 18 18 18 18 18 18 18 18 18 18 18 18 18 18
17 18 18 18 18 17 17 18 18 18 18 18 18 18 18 18 18 18 18 18 18 18 18 18 18 18 18 18 18 18 18 18 18 18 18 18 18 18 18 18 18 18 18
18 18 17 18 18 17 18 18 18 18 18 18 18 17 18 18 18 18 18 18 18 18 18 18 18 18 18 18 18 18 18 18 18 18 18 18 18 18 18 18 17 17 18
18 18 17 17 17 17 17 17 17 17 18 18 17 17 17 18 18 18 18 18 18 18 18 17 17 17 17 17 18 18 18 18 18 18 17 17 17 17 17 17 17 17 17
18 18 17 17 17 17 17 17 17 17 17 17 17 17 17 17 17 17 17 17 17 17 17 17 17 17 17 17 17 17 17 17 17 17 17 17 17 17 17 17 17 17 17
17 17 17 17 17 17 17 17 17 17 17 17 17 17 17 17 17 17 17 17 17 17 17 17 17 17 17 17 17 17 17 17 17 17 17 17 17 17 17 17 17 17 17
17 17 17 17 17 17 17 17 17 17 17 17 17 17 17 17 17 17 17 17 17 17 17 17 17 17 17 17 17 17 17 17 17 17 17 17 17 17 17 17 17 17 17
17 17 17 17 17 17 17 17 17 17 17 17 17 17 17 17 17 17 17 17 17 17 17 17 17 17 17 17 17 17 17 17 17 17 17 17 17 17 17 17 17 17 17
17 17 17 17 17 17 17 17 17 17 17 17 17 17 17 17 17 16 16 17 17 17 17 17 17 17 17 17 17 17 17 16 17 16 16 16 16 16 17 17 17 17 17
17 17 17 17 17 17 17 17 17 17 17 17 17 16 16 16 16 16 16 16 16 16 16 16 17 17 17 17 17 16 16 16 16 16 16 16 16 16 16 16 16 16 16
17 17 17 17 17 16 16 16 16 16 16 16 16 16 16 16 16 16 16 16 16 16 16 16 16 16 16 16 16 16 16 16 16 16 16 16 16 16 16 16 16 16 16
17 17 17 17 16 16 16 16 16 16 16 16 16 16 16 16 16 16 16 16 16 16 16 16 16 16 16 16 16 16 16 16 16 16 16 16 16 16 16 16 16 16 16
17 17 17 17 16 16 16 16 16 16 16 16 16 16 16 16 16 16 16 16 16 16 16 16 16 16 16 16 16 16 15 15 15 15 15 16 16 16 16 15 15 15 16
17 17 17 16 16 16 16 16 16 16 16 16 16 16 16 16 16 16 15 15 15 15 15 15 16 15 15 15 15 15 15 15 15 15 15 15 15 15 15 15 15 15 15
17 17 17 17 16 16 16 16 16 16 16 16 16 16 16 16 15 15 15 15 15 15 15 15 15 15 15 15 15 15 15 15 15 15 15 15 15 15 15 15 15 15 15
17 17 17 17 16 16 16 16 16 16 16 16 15 15 15 15 15 15 15 15 15 15 15 15 15 15 15 15 15 15 15 15 15 15 15 15 14 14 14 15 15 14 14
17 17 17 17 16 16 16 16 16 16 16 16 15 15 15 15 15 15 15 15 15 15 15 15 15 15 15 15 15 15 14 14 14 14 14 14 14 14 14 14 14 14 14
17 17 17 17 16 16 16 16 16 16 16 16 15 15 15 15 15 15 15 15 15 14 14 14 14 14 14 14 14 14 14 14 14 14 14 14 14 14 14 14 14 14 14
17 17 17 16 16 16 16 16 16 16 15 15 15 15 15 15 15 15 15 15 14 14 14 14 14 14 14 14 14 14 14 14 14 14 14 14 14 13 13 13 13 13 13
17 17 17 16 16 16 16 16 16 15 15 15 15 15 15 15 15 15 14 14 14 14 14 14 14 14 14 14 14 14 14 14 13 13 13 13 13 13 13 13 13 13 13
17 17 16 16 16 16 16 16 16 15 15 15 15 15 15 15 14 14 14 14 14 14 14 14 14 14 14 14 14 13 13 13 13 13 13 13 13 13 13 13 13 13 13
17 16 16 16 16 16 16 16 15 15 15 15 15 14 14 14 14 14 14 14 14 14 14 14 14 14 14 13 13 13 13 13 13 13 13 13 13 13 13 13 13 13 13
16 16 16 16 16 16 16 15 15 15 15 15 15 14 14 14 14 14 14 14 14 14 14 14 14 14 14 13 13 13 13 13 13 13 13 13 13 13 13 13 12 12 12
17 16 16 16 16 15 15 15 15 15 15 15 14 14 14 14 14 14 14 14 14 14 14 14 14 13 13 13 13 13 13 13 13 12 12 12 12 12 12 12 12 12 12
16 16 16 16 15 15 15 15 15 15 15 14 14 14 14 14 14 14 14 14 14 14 13 13 13 13 13 13 13 13 13 13 13 12 12 12 12 12 12 12 12 12 12
16 16 16 15 15 15 15 15 15 15 15 14 14 14 14 14 14 14 14 13 13 13 13 13 13 13 13 13 13 13 13 13 13 13 12 12 12 12 12 12 12 12 12
Wind_Speed
2 3 2 3 5 6 7 7 8 9 9 9 9 9 10 11 11 11 11 11 11 11 11 11 11 12 12 12 12 11 11 11 11 10 10 10 10 10 11 11 9 8 10
1 1 2 4 6 7 8 8 9 9 10 10 10 10 11 11 11 11 11 11 11 11 12 12 12 12 12 12 12 12 12 12 11 11 11 10 10 10 10 10 9 8 10
2 1 2 5 7 8 9 9 10 10 11 11 12 12 12 12 11 11 11 12 12 12 12 12 12 12 12 12 12 12 12 12 11 11 10 8 8 10 10 9 9 9 9
3 2 3 5 7 8 9 10 10 11 11 12 12 13 13 12 12 12 12 12 12 12 12 12 12 12 12 12 12 12 12 11 11 10 8 7 7 9 9 9 9 9 9
3 3 4 6 8 9 9 10 11 11 11 11 11 12 12 12 12 12 12 12 12 12 13 12 12 12 11 11 12 11 11 11 11 10 8 7 7 9 9 9 9 8 8
4 4 5 7 8 9 10 10 11 11 11 11 11 11 11 11 12 12 12 12 12 12 12 12 12 12 11 11 11 11 11 11 10 9 8 7 7 9 9 9 8 8 7
4 4 5 7 8 9 10 10 10 10 11 10 11 11 12 12 12 12 12 12 12 12 12 12 12 11 11 10 11 10 10 10 9 8 7 6 7 8 8 8 7 7 7
4 4 5 6 8 8 9 9 10 10 10 11 11 11 12 11 12 12 12 12 12 12 12 12 12 11 11 10 10 10 10 9 8 7 6 6 7 8 8 8 8 7 7
5 4 4 5 6 7 8 9 10 10 11 11 11 11 11 12 12 12 12 12 12 12 12 11 11 11 10 10 10 10 10 10 8 6 5 5 6 7 8 8 8 8 7
5 4 4 5 6 5 6 8 9 9 10 10 10 11 11 12 11 11 12 12 12 12 12 11 11 11 10 10 10 10 10 9 7 6 5 5 6 7 8 8 7 7 7
4 3 3 4 4 4 4 6 7 8 9 9 9 10 10 10 9 10 11 11 11 11 11 11 11 10 10 10 10 10 9 7 7 6 5 6 7 7 7 8 8 8 8
3 2 2 2 3 3 4 5 6 6 7 7 8 8 8 8 9 9 11 11 11 11 11 11 11 10 9 8 8 8 7 7 7 5 6 7 7 7 8 8 8 8 8
3 2 2 2 2 3 3 4 4 5 6 6 6 7 7 7 7 8 8 8 9 9 9 9 9 8 8 7 7 7 7 7 6 5 6 7 8 9 9 9 9 9 9
4 3 2 2 2 3 3 3 3 3 3 3 4 5 5 4 4 5 5 6 6 7 7 7 7 8 8 8 8 7 7 6 6 6 6 8 8 9 9 10 10 10 10
4 3 3 3 2 2 3 2 2 2 3 3 3 4 4 3 3 3 4 5 5 6 6 5 6 6 6 7 7 7 6 7 7 8 7 9 9 9 10 10 10 10 10
4 4 3 3 3 3 2 2 2 2 3 3 3 3 4 4 3 3 3 4 4 5 5 6 5 5 4 5 6 6 6 7 7 8 8 9 10 10 9 9 10 9 9
4 4 4 4 3 3 3 2 2 3 3 2 2 3 4 4 4 4 3 3 3 5 6 6 6 5 4 5 5 5 6 7 7 7 8 8 9 10 10 9 9 9 8
4 4 4 4 4 4 3 3 3 3 3 2 3 3 4 4 5 5 3 3 4 5 4 4 3 4 4 4 4 4 4 5 6 7 8 9 9 9 9 10 9 9 8
4 4 4 4 5 4 4 3 3 3 3 2 3 3 4 4 5 5 3 3 4 4 3 3 3 3 3 4 4 4 4 4 5 6 7 8 8 9 9 9 9 9 8
4 4 4 4 4 4 4 4 3 3 2 3 2 3 3 4 5 5 3 3 4 3 3 3 4 4 3 3 4 4 4 4 4 4 5 5 7 8 8 8 7 7 7
4 4 4 4 4 4 3 3 3 1 1 1 1 2 3 3 4 4 3 3 3 3 3 3 3 4 3 2 3 3 4 4 4 3 4 4 5 6 7 6 6 6 6
4 4 4 4 5 4 3 3 2 2 1 1 1 2 2 2 3 3 3 2 2 3 3 3 3 2 2 2 2 2 2 3 4 4 3 3 4 4 5 5 5 5 5
5 5 5 5 5 4 3 3 3 3 3 2 1 0 0 1 2 3 3 3 2 2 3 2 3 3 2 1 2 3 3 1 1 3 3 3 3 3 3 4 4 5 5
6 5 4 4 5 4 4 5 5 4 2 2 2 1 0 1 1 2 3 3 2 2 2 2 2 2 3 2 1 1 2 3 2 1 3 3 3 2 3 3 3 3 4
5 5 4 4 4 4 5 5 5 4 3 1 1 1 1 0 1 2 2 3 2 2 2 2 2 2 2 3 2 1 2 2 2 2 1 2 3 2 2 2 2 2 3
4 4 4 5 4 4 5 5 5 5 4 3 2 2 1 0 0 1 2 2 2 2 2 2 2 3 3 3 2 2 2 2 2 2 2 1 1 2 2 2 2 2 3
Wind_Direction
289 299 338 57 53 55 62 71 80 84 85 87 89 93 93 90 89 89 88 87 87 88 89 91 91 92 94 97 99 98 98 98 95 92 90 91 97 101 107 113 115 118 123
208 284 61 70 61 64 70 73 83 88 87 84 81 87 92 92 91 90 89 89 90 90 90 93 93 92 92 93 95 95 94 94 91 89 86 85 90 95 101 108 113 114 115
118 68 82 76 69 71 75 78 82 87 86 82 79 84 90 91 90 89 88 88 89 90 92 93 94 94 92 92 92 91 90 90 87 83 77 74 86 94 98 106 110 110 110
113 81 90 87 79 77 81 83 84 85 83 83 82 83 86 87 86 86 86 87 88 89 91 93 94 96 95 94 95 94 91 88 84 81 70 66 78 92 96 105 107 108 108
90 78 88 91 88 84 83 87 88 88 86 85 83 82 84 85 84 85 85 85 85 86 87 91 94 95 97 95 94 92 89 85 80 72 68 65 73 87 94 101 102 104 107
87 77 85 91 90 87 85 88 92 90 88 87 85 84 82 83 82 80 82 82 82 83 84 85 89 91 93 94 92 88 85 82 75 70 67 68 76 84 91 96 96 97 103
92 78 86 92 91 88 87 86 89 89 88 84 84 82 81 80 80 79 78 78 78 79 82 83 84 85 85 89 90 87 83 80 77 73 65 66 78 86 91 96 97 98 100
102 85 83 91 90 88 89 88 90 90 87 84 82 81 83 81 78 77 75 75 76 77 80 82 82 81 81 86 88 87 84 79 76 74 67 65 81 88 93 96 98 103 104
83 77 64 69 79 83 84 86 86 86 84 83 81 80 79 76 74 74 73 73 75 76 79 80 78 77 78 83 87 86 84 77 69 67 72 71 80 85 89 92 96 98 102
74 67 58 56 60 62 72 82 82 82 80 79 78 78 74 68 67 69 69 71 73 74 74 74 75 74 76 80 85 84 80 72 63 59 63 76 85 87 90 91 92 93 93
87 68 64 58 53 55 63 75 72 73 71 72 70 73 68 59 57 61 67 70 72 71 70 69 71 71 73 74 77 77 71 63 59 57 61 74 82 85 84 88 86 85 87
139 120 85 74 62 54 60 63 59 61 60 63 67 68 65 61 59 64 66 67 68 69 68 67 68 65 66 66 64 65 62 57 55 51 61 69 76 80 79 82 81 81 82
165 150 120 110 85 70 56 62 58 58 56 56 62 70 71 65 62 59 58 55 56 60 61 62 59 58 61 63 62 62 60 57 50 48 61 68 77 81 79 76 72 72 78
154 168 157 140 108 86 73 68 65 65 59 53 51 72 81 73 64 61 59 55 57 62 66 63 64 62 61 61 64 64 59 55 49 42 46 65 79 85 83 80 75 71 74
163 176 172 151 138 108 87 80 79 73 72 67 61 71 92 92 78 69 63 64 65 71 76 72 66 63 60 58 61 65 59 55 51 45 44 60 70 76 80 81 78 73 70
171 180 164 158 150 126 119 112 101 87 80 76 69 72 87 102 100 83 70 64 66 73 80 81 73 66 61 62 54 57 58 55 52 49 47 51 60 69 74 73 70 68 66
173 173 162 163 144 138 137 135 105 95 94 89 83 88 89 101 108 105 91 74 71 81 85 82 74 70 66 61 51 47 53 53 53 50 49 48 49 57 64 67 65 62 60
164 165 163 159 142 141 139 123 103 97 96 91 90 89 91 100 111 108 100 87 86 88 89 83 72 74 66 62 55 42 43 48 51 51 52 50 49 49 55 61 60 57 55
163 161 154 141 143 144 123 102 101 90 88 88 90 88 96 100 106 110 107 103 98 90 78 87 70 80 81 69 64 48 40 42 41 51 50 48 49 49 49 52 56 53 49
149 150 153 136 131 126 107 92 83 75 67 72 84 96 98 101 106 106 107 107 108 95 77 83 86 70 76 71 71 55 41 38 43 44 42 44 47 48 48 48 47 44 41
140 152 158 145 140 135 125 124 120 117 94 69 68 94 100 109 114 113 109 104 107 106 110 108 99 83 62 60 73 46 28 35 42 37 39 42 41 42 47 48 48 45 33
163 165 156 155 155 161 160 150 141 135 132 124 57 69 98 117 122 119 123 112 114 114 106 111 107 102 75 63 100 91 31 5 11 21 27 40 29 36 40 40 43 40 33
175 177 172 165 162 167 150 118 94 77 61 57 61 62 41 141 138 125 127 125 119 129 147 148 138 128 135 56 72 124 132 209 319 352 9 22 19 24 21 31 38 33 31
191 178 168 166 161 163 153 150 147 145 159 199 185 178 161 152 150 140 136 134 138 132 151 170 147 139 141 146 79 55 119 150 145 337 340 355 9 12 360 18 23 23 26
182 167 169 160 164 166 166 167 161 153 166 158 128 131 141 130 129 148 151 145 148 151 164 166 147 143 149 160 161 139 97 78 101 147 248 325 346 341 340 349 4 3 3
165 161 168 169 178 175 171 170 171 166 161 150 154 166 192 237 265 173 162 156 161 169 181 187 176 164 165 159 159 157 158 155 168 154 175 238 293 308 331 346 349 336 337
Height
1505 1504 1504 1503 1502 1501 1501 1500 1500 1500 1500 1501 1501 1501 1501 1503 1504 1504 1505 1506 1506 1506 1507 1507 1508 1509 1510 1510 1511 1512 1513 1514 1514 1514 1515 1515 1515 1516 1517 1518 1520 1522 1523
1506 1505 1505 1504 1504 1503 1502 1501 1501 1501 1501 1501 1500 1500 1501 1504 1505 1506 1507 1507 1508 1508 1509 1509 1510 1511 1512 1512 1513 1514 1514 1515 1515 1516 1516 1517 1518 1518 1519 1520 1522 1523 1524
1507 1506 1506 1505 1505 1504 1503 1503 1503 1503 1503 1503 1502 1501 1503 1505 1507 1508 1508 1509 1509 1510 1511 1511 1512 1513 1514 1514 1515 1515 1516 1517 1517 1518 1518 1519 1519 1520 1521 1522 1523 1524 1525
1508 1508 1507 1507 1506 1506 1505 1505 1505 1505 1505 1505 1505 1505 1506 1507 1508 1509 1510 1511 1511 1512 1512 1513 1514 1515 1515 1516 1516 1517 1518 1518 1519 1519 1520 1520 1521 1522 1522 1523 1524 1525 1526
1509 1509 1509 1509 1508 1508 1507 1507 1507 1507 1507 1507 1508 1508 1509 1510 1510 1511 1512 1512 1513 1513 1514 1515 1516 1516 1517 1518 1518 1519 1519 1520 1520 1521 1521 1522 1522 1523 1523 1524 1525 1526 1527
1511 1511 1511 1510 1510 1510 1509 1509 1509 1510 1510 1510 1510 1511 1511 1512 1512 1513 1513 1514 1515 1515 1516 1517 1517 1518 1519 1519 1520 1520 1521 1521 1522 1522 1523 1523 1523 1524 1525 1525 1526 1527 1528
1512 1512 1512 1512 1512 1512 1512 1512 1512 1512 1512 1512 1513 1513 1513 1514 1514 1515 1515 1516 1517 1517 1518 1518 1519 1520 1520 1521 1521 1522 1522 1523 1523 1523 1524 1524 1525 1525 1526 1526 1527 1528 1529
1514 1514 1514 1514 1514 1514 1514 1514 1514 1514 1514 1515 1515 1515 1515 1516 1516 1517 1517 1518 1518 1519 1519 1520 1521 1521 1522 1522 1523 1523 1524 1524 1524 1525 1525 1526 1526 1526 1527 1527 1528 1529 1529
1516 1516 1516 1516 1516 1517 1516 1516 1516 1516 1517 1517 1517 1518 1518 1518 1518 1519 1519 1519 1520 1521 1521 1522 1522 1522 1523 1523 1524 1524 1525 1525 1526 1526 1526 1527 1527 1527 1528 1528 1529 1529 1530
1517 1518 1518 1518 1518 1518 1519 1519 1519 1519 1519 1519 1519 1520 1520 1520 1520 1521 1521 1522 1522 1522 1523 1523 1523 1524 1524 1524 1524 1525 1525 1526 1526 1527 1527 1528 1528 1528 1529 1529 1530 1530 1531
1518 1519 1520 1520 1520 1521 1521 1521 1521 1521 1521 1521 1521 1522 1522 1522 1522 1523 1523 1523 1524 1524 1524 1524 1524 1525 1525 1525 1525 1526 1526 1527 1527 1528 1528 1529 1529 1529 1529 1530 1531 1531 1532
1519 1520 1521 1521 1522 1522 1522 1523 1523 1523 1523 1523 1524 1524 1524 1524 1524 1525 1525 1525 1525 1525 1525 1526 1526 1526 1526 1526 1526 1527 1527 1527 1528 1528 1529 1529 1529 1530 1530 1531 1531 1532 1532
1520 1521 1522 1522 1523 1523 1524 1524 1524 1525 1525 1525 1525 1526 1526 1526 1526 1526 1526 1527 1527 1527 1527 1527 1527 1527 1527 1527 1527 1528 1528 1528 1529 1529 1530 1530 1530 1530 1530 1531 1532 1532 1533
1520 1521 1522 1523 1524 1524 1525 1525 1526 1526 1527 1527 1527 1527 1527 1528 1528 1528 1528 1528 1528 1528 1528 1528 1528 1528 1528 1529 1529 1529 1529 1529 1530 1530 1530 1530 1531 1531 1531 1532 1532 1533 1534
1521 1522 1523 1524 1525 1525 1526 1526 1527 1528 1528 1528 1529 1529 1529 1529 1529 1529 1529 1529 1529 1529 1529 1529 1529 1530 1530 1530 1530 1530 1530 1531 1531 1530 1531 1531 1532 1532 1532 1533 1533 1534 1534
1521 1523 1524 1524 1525 1526 1526 1527 1528 1528 1529 1529 1530 1530 1530 1530 1531 1530 1531 1530 1530 1530 1531 1530 1530 1531 1531 1531 1531 1531 1531 1531 1532 1532 1532 1532 1533 1533 1533 1534 1534 1535 1535
1521 1523 1524 1525 1526 1526 1527 1528 1529 1529 1530 1530 1530 1531 1531 1531 1531 1532 1532 1531 1531 1531 1531 1532 1532 1532 1532 1532 1532 1532 1532 1532 1533 1533 1533 1533 1534 1534 1534 1535 1535 1535 1535
1521 1523 1524 1525 1526 1527 1527 1528 1529 1530 1530 1531 1531 1531 1532 1532 1532 1532 1532 1532 1532 1532 1532 1532 1532 1532 1532 1532 1533 1533 1533 1533 1533 1534 1534 1534 1534 1535 1535 1535 1535 1535 1536
1521 1522 1523 1525 1526 1527 1528 1528 1529 1530 1531 1531 1531 1532 1532 1532 1532 1533 1533 1533 1533 1533 1533 1532 1532 1533 1533 1533 1533 1533 1534 1534 1534 1534 1535 1535 1535 1535 1535 1536 1536 1536 1536
1520 1522 1523 1524 1526 1526 1527 1528 1529 1530 1530 1531 1531 1532 1532 1532 1532 1533 1533 1533 1533 1533 1533 1532 1532 1533 1533 1533 1533 1534 1534 1535 1535 1535 1535 1536 1536 1536 1536 1536 1536 1536 1536
1519 1521 1522 1523 1524 1525 1526 1527 1528 1529 1530 1531 1531 1532 1532 1532 1532 1533 1533 1533 1533 1533 1533 1533 1533 1533 1533 1533 1534 1534 1535 1535 1535 1535 1536 1536 1536 1536 1536 1536 1536 1536 1536
1517 1519 1520 1522 1523 1524 1525 1527 1528 1529 1529 1530 1531 1532 1532 1532 1533 1533 1533 1533 1533 1533 1533 1533 1533 1533 1533 1533 1534 1534 1535 1536 1535 1535 1536 1536 1536 1536 1536 1536 1536 1536 1535
1515 1517 1518 1520 1522 1523 1525 1526 1527 1528 1528 1529 1530 1531 1531 1532 1532 1532 1532 1532 1532 1532 1532 1532 1533 1533 1533 1533 1534 1535 1534 1534 1535 1535 1535 1535 1536 1536 1536 1536 1535 1535 1535
1513 1515 1517 1519 1520 1522 1523 1524 1525 1526 1527 1528 1529 1530 1531 1531 1531 1532 1532 1532 1532 1531 1532 1532 1532 1532 1532 1533 1533 1534 1534 1534 1534 1534 1535 1535 1535 1535 1535 1535 1535 1535 1534
1511 1513 1515 1517 1519 1520 1522 1523 1524 1525 1526 1527 1528 1528 1529 1530 1530 1530 1530 1530 1530 1531 1531 1531 1531 1531 1532 1532 1532 1533 1533 1533 1533 1533 1533 1534 1534 1534 1534 1534 1534 1534 1534
1509 1511 1513 1515 1517 1519 1520 1521 1522 1523 1524 1525 1526 1527 1527 1528 1528 1529 1529 1529 1529 1529 1530 1530 1530 1530 1530 1531 1531 1531 1532 1532 1532 1532 1532 1532 1532 1533 1533 1533 1533 1533 1533